Date String (YYYY-MM-DD hh:mm:ss) UTC,Instrument flags,Ambient pressure (hPa),Sample flow (lpm),Bypass flow (lpm),Sample temperature (°C),Ambient temperature (°C),ASC tube jacket temperature (°C),LED temperature (°C),Box temperature (°C),Sample RH (%),Mass concentration (μg/m³),Mass concentration (μg/m³)
DateTimeUTC,F1_M11,P_M11,Q1_M11,Q2_M11,T1_M11,T2_M11,T3_M11,T4_M11,T5_M11,U1_M11,X0_M11,X2_M11
2021-08-18 20:00:00,,0824.0,5.01,0.00,28.9,26.5,00.0,37.9,30.5,23.4,0032.94,0019.42
2021-08-18 20:01:00,,0824.0,4.99,0.00,28.8,25.7,00.0,37.9,30.2,23.3,0032.77,0019.44
2021-08-18 20:02:00,,0824.0,5.02,0.00,28.7,26.1,00.0,37.8,30.3,22.9,0032.67,0019.41
2021-08-18 20:03:00,,0823.9,4.99,0.00,28.7,26.5,00.0,37.8,30.4,23.6,0032.39,0019.42
2021-08-18 20:04:00,,0824.0,5.00,0.00,28.8,26.9,00.0,37.8,30.6,24.9,0032.73,0019.51
2021-08-18 20:05:00,,0824.0,5.00,0.00,28.8,27.3,00.0,37.8,30.7,24.6,0032.46,0019.62
2021-08-18 20:06:00,,0823.9,5.01,0.00,28.9,27.6,00.0,37.9,30.8,24.2,0032.49,0019.68
2021-08-18 20:07:00,,0824.0,4.99,0.00,29.0,27.6,00.0,37.9,30.8,23.0,0032.54,0019.73
2021-08-18 20:08:00,,0823.9,4.99,0.00,28.9,26.3,00.0,37.9,30.5,22.9,0031.79,0019.79
2021-08-18 20:09:00,,0823.8,5.01,0.00,28.8,25.6,00.0,37.8,30.2,23.7,0032.33,0019.86
2021-08-18 20:10:00,,0823.8,4.98,0.00,28.7,26.0,00.0,37.8,30.3,24.4,0030.66,0019.96
2021-08-18 20:11:00,,0823.8,5.00,0.00,28.7,26.4,00.0,37.8,30.4,24.4,0030.54,0020.05
2021-08-18 20:12:00,,0823.8,5.01,0.00,28.8,26.8,00.0,37.8,30.5,23.6,0031.34,0020.12
2021-08-18 20:13:00,,0823.8,5.00,0.00,28.8,27.2,00.0,37.8,30.7,23.6,0032.72,0020.26
2021-08-18 20:14:00,,0823.8,4.99,0.00,28.9,27.5,00.0,37.8,30.8,23.2,0033.60,0020.34
2021-08-18 20:15:00,,0823.8,5.01,0.00,29.0,27.9,00.0,37.9,30.9,23.6,0033.90,0020.38
2021-08-18 20:16:00,,0823.8,5.00,0.00,29.0,27.2,00.0,37.9,30.7,23.9,0035.49,0020.44
2021-08-18 20:17:00,,0823.8,5.00,0.00,28.8,25.8,00.0,37.9,30.2,23.7,0038.38,0020.53
2021-08-18 20:18:00,,0823.8,5.02,0.00,28.7,25.8,00.0,37.8,30.2,23.5,0038.70,0020.55
2021-08-18 20:19:00,,0823.8,5.00,0.00,28.7,26.2,00.0,37.8,30.4,23.2,0038.99,0020.60
2021-08-18 20:20:00,,0823.8,4.99,0.00,28.7,26.6,00.0,37.8,30.5,22.8,0038.47,0020.57
2021-08-18 20:21:00,,0823.7,5.01,0.00,28.8,27.1,00.0,37.8,30.6,21.4,0038.08,0020.43
2021-08-18 20:22:00,,0823.7,4.99,0.00,28.9,27.4,00.0,37.8,30.8,22.2,0038.02,0020.40
2021-08-18 20:23:00,,0823.7,5.00,0.00,28.9,27.7,00.0,37.9,30.9,22.5,0037.24,0020.38
2021-08-18 20:24:00,,0823.7,5.01,0.00,29.0,27.1,00.0,37.9,30.7,22.5,0035.40,0020.39
2021-08-18 20:25:00,,0823.7,5.00,0.00,28.8,25.8,00.0,37.8,30.2,22.7,0035.35,0020.32
2021-08-18 20:26:00,,0823.7,5.01,0.00,28.8,25.8,00.0,37.8,30.2,22.5,0035.70,0020.20
2021-08-18 20:27:00,,0823.7,4.99,0.00,28.7,26.2,00.0,37.8,30.4,23.0,0036.05,0020.11
2021-08-18 20:28:00,,0823.7,5.01,0.00,28.7,26.6,00.0,37.8,30.5,23.0,0033.20,0020.04
2021-08-18 20:29:00,,0823.7,4.99,0.00,28.8,27.0,00.0,37.8,30.6,22.8,0032.49,0020.02
2021-08-18 20:30:00,,0823.7,5.01,0.00,28.8,27.3,00.0,37.8,30.7,23.0,0032.32,0019.97
2021-08-18 20:31:00,,0823.7,5.00,0.00,28.9,27.7,00.0,37.8,30.8,23.6,0032.38,0019.93
2021-08-18 20:32:00,,0823.7,5.00,0.00,28.9,27.1,00.0,37.9,30.7,23.7,0032.82,0020.01
2021-08-18 20:33:00,,0823.7,5.01,0.00,28.8,25.7,00.0,37.8,30.3,24.0,0032.35,0020.08
2021-08-18 20:34:00,,0823.7,4.99,0.00,28.7,25.7,00.0,37.8,30.2,23.8,0032.32,0020.14
2021-08-18 20:35:00,,0823.7,5.01,0.00,28.7,26.1,00.0,37.8,30.4,23.6,0032.69,0020.12
2021-08-18 20:36:00,,0823.7,4.99,0.00,28.7,26.6,00.0,37.8,30.4,23.5,0031.88,0020.16
2021-08-18 20:37:00,,0823.7,5.00,0.00,28.8,27.0,00.0,37.8,30.6,23.4,0031.61,0020.21
2021-08-18 20:38:00,,0823.7,4.99,0.00,28.8,27.3,00.0,37.8,30.7,23.5,0031.40,0020.29
2021-08-18 20:39:00,,0823.7,5.00,0.00,28.9,27.6,00.0,37.8,30.8,23.8,0031.76,0020.31
2021-08-18 20:40:00,,0823.6,5.00,0.00,28.9,27.0,00.0,37.8,30.6,24.0,0031.75,0020.26
2021-08-18 20:41:00,,0823.6,4.99,0.00,28.8,25.7,00.0,37.8,30.1,24.3,0032.24,0020.27
2021-08-18 20:42:00,,0823.6,5.02,0.00,28.7,25.7,00.0,37.8,30.1,24.3,0032.37,0020.33
2021-08-18 20:43:00,,0823.5,5.00,0.00,28.7,26.1,00.0,37.8,30.3,24.2,0032.01,0020.34
2021-08-18 20:44:00,,0823.5,4.99,0.00,28.7,26.5,00.0,37.8,30.4,23.9,0032.84,0020.27
2021-08-18 20:45:00,,0823.5,5.01,0.00,28.7,26.9,00.0,37.8,30.5,24.2,0033.01,0020.15
2021-08-18 20:46:00,,0823.5,4.99,0.00,28.8,27.2,00.0,37.8,30.7,23.9,0033.24,0020.13
2021-08-18 20:47:00,,0823.4,5.01,0.00,28.9,27.6,00.0,37.8,30.8,23.9,0034.52,0020.15
2021-08-18 20:48:00,,0823.5,5.00,0.00,28.9,27.7,00.0,37.8,30.9,23.5,0033.94,0020.14
2021-08-18 20:49:00,,0823.5,5.00,0.00,28.9,26.4,00.0,37.8,30.4,23.4,0032.67,0020.07
2021-08-18 20:50:00,,0823.5,4.99,0.00,28.7,25.6,00.0,37.8,30.1,23.8,0031.55,0020.01
2021-08-18 20:51:00,,0823.4,4.99,0.00,28.7,26.0,00.0,37.8,30.3,23.3,0032.35,0019.94
2021-08-18 20:52:00,,0823.4,5.01,0.00,28.7,26.4,00.0,37.8,30.4,23.3,0032.80,0019.91
2021-08-18 20:53:00,,0823.4,5.00,0.00,28.7,26.8,00.0,37.8,30.5,22.9,0033.02,0019.90
2021-08-18 20:54:00,,0823.4,5.00,0.00,28.8,27.2,00.0,37.8,30.7,22.9,0033.72,0019.85
2021-08-18 20:55:00,,0823.3,4.99,0.00,28.9,27.5,00.0,37.8,30.8,22.6,0033.82,0019.84
2021-08-18 20:56:00,,0823.3,5.01,0.00,28.9,27.6,00.0,37.8,30.8,22.3,0034.36,0019.86
2021-08-18 20:57:00,,0823.3,4.99,0.00,28.9,26.3,00.0,37.8,30.4,21.4,0034.43,0019.74
2021-08-18 20:58:00,,0823.4,5.00,0.00,28.7,25.5,00.0,37.8,30.1,21.5,0033.23,0019.60
2021-08-18 20:59:00,,0823.3,5.00,0.00,28.7,25.9,00.0,37.8,30.3,21.0,0034.21,0019.51
